Orbital Elements at Epoch 2459000.5 (2020-May-31.0) TDB
Reference: JPL 32 (heliocentric ecliptic J2000)
Element | Value | Uncertainty (1-sigma) | Units |
e | .09409023358117601 | 3.9544e-08 | |
a | 2.300468306470846 | 7.5484e-09 | au |
q | 2.084016706168911 | 8.97e-08 | au |
i | 3.369935287775977 | 3.878e-06 | deg |
node | 357.2512993548672 | 5.9243e-05 | deg |
peri | 323.0578513043818 | 6.2298e-05 | deg |
M | 148.8222740622095 | 2.0265e-05 | deg |
tp | 2458473.648471818344 (2018-Dec-21.14847182) | 7.1294e-05 | TDB |
period | 1274.450019935278 3.49 | 6.2727e-06 1.717e-08 | d yr |
n | .2824747886294375 | 1.3903e-09 | deg/d |
Q | 2.51691990677278 | 8.2586e-09 | au |
|
| | Orbit Determination Parameters
Additional Information
|